Вернуться в каталог

STARLINK-35121

АктивенСвязьVLEO
NORAD 65737·PAYLOAD·🇺🇸 United States

Запущен Sep 25, 2025 с Cape Canaveral Space Force Station

Loading…

Ближайшие Пролёты (ближайшие 24 часа)

TLE

СвежийSource: CelesTrak SupGP

Эпоха: Sep 14, 2026, 21:39 UTC

1 65737C 25216D   26257.90256944 -.00049639  00000+0 -14660-2 0  2573
2 65737  53.1578 171.7010 0001330  91.5516 339.5508 15.34428830    12

Отслеживайте STARLINK-35121 в реальном времени с AllMySat

Download on the App Store